Location: Canyon City
(32.5951°N, 116.5278°W)
Time: 01:51:47
(UTC+00:00)

ISS - Pass Details

Date: 08 September 2024
Orbit: 411 x 421 km, 51.6° (Epoch: 03 October)

Event Time Altitude Azimuth Distance (km) Brightness Sun altitude
Exits shadow 12:49:28 - 289° (WNW) 1,660 -1.3 -8.4°
Reaches altitude 10° 12:49:53 10° 285° (WNW) 1,517 -1.5 -8.3°
Maximum altitude 12:52:38 23° 231° (SW) 963 -2.4 -7.7°
Drops below altitude 10° 12:55:22 10° 178° (S) 1,510 -1.0 -7.2°
Sets 12:57:44 0° 163° (SSE) 2,371 0.2 -6.7°
